TimePDT,TemperatureF,Dew PointF,Humidity,Sea Level PressureIn,VisibilityMPH,Wind Direction,Wind SpeedMPH,Gust SpeedMPH,PrecipitationIn,Events,Conditions,WindDirDegrees,DateUTC
12:15 AM,37.4,33.8,87,30.45,10.0,Calm,Calm,-,N/A,,Mostly Cloudy,0,2013-05-01 07:15:00
12:35 AM,35.6,32.0,87,30.46,10.0,Calm,Calm,-,N/A,,Overcast,0,2013-05-01 07:35:00
12:55 AM,35.6,33.8,93,30.47,10.0,Calm,Calm,-,N/A,,Mostly Cloudy,0,2013-05-01 07:55:00
1:15 AM,35.6,33.8,93,30.48,10.0,Calm,Calm,-,N/A,,Overcast,0,2013-05-01 08:15:00
1:35 AM,35.6,33.8,93,30.48,10.0,Calm,Calm,-,N/A,,Overcast,0,2013-05-01 08:35:00
1:55 AM,35.6,33.8,93,30.49,10.0,Calm,Calm,-,N/A,,Mostly Cloudy,0,2013-05-01 08:55:00
2:15 AM,33.8,32.0,93,30.50,10.0,Calm,Calm,-,N/A,,Mostly Cloudy,0,2013-05-01 09:15:00
2:35 AM,33.8,33.8,100,30.49,10.0,Calm,Calm,-,N/A,,Overcast,0,2013-05-01 09:35:00
2:55 AM,32.0,32.0,100,30.50,10.0,Calm,Calm,-,N/A,,Mostly Cloudy,0,2013-05-01 09:55:00
3:15 AM,32.0,32.0,100,30.50,10.0,Calm,Calm,-,N/A,,Mostly Cloudy,0,2013-05-01 10:15:00
3:35 AM,32.0,32.0,100,30.50,10.0,Calm,Calm,-,N/A,,Mostly Cloudy,0,2013-05-01 10:35:00
3:55 AM,32.0,32.0,100,30.50,10.0,Calm,Calm,-,N/A,,Overcast,0,2013-05-01 10:55:00
4:15 AM,32.0,32.0,100,30.51,10.0,Calm,Calm,-,N/A,,Mostly Cloudy,0,2013-05-01 11:15:00
4:35 AM,32.0,32.0,100,30.51,10.0,Calm,Calm,-,N/A,,Overcast,0,2013-05-01 11:35:00
4:55 AM,32.0,32.0,100,30.52,10.0,Calm,Calm,-,N/A,,Mostly Cloudy,0,2013-05-01 11:55:00
5:15 AM,32.0,32.0,100,30.52,10.0,Calm,Calm,-,N/A,,Overcast,0,2013-05-01 12:15:00
5:35 AM,30.2,30.2,100,30.52,10.0,Calm,Calm,-,N/A,,Overcast,0,2013-05-01 12:35:00
5:55 AM,32.0,32.0,100,30.53,10.0,Calm,Calm,-,N/A,,Mostly Cloudy,0,2013-05-01 12:55:00
6:15 AM,30.2,30.2,100,30.53,10.0,Calm,Calm,-,N/A,,Mostly Cloudy,0,2013-05-01 13:15:00
6:35 AM,32.0,32.0,100,30.54,10.0,Calm,Calm,-,N/A,,Mostly Cloudy,0,2013-05-01 13:35:00
6:55 AM,32.0,32.0,100,30.54,10.0,Calm,Calm,-,N/A,,Overcast,0,2013-05-01 13:55:00
7:15 AM,32.0,32.0,100,30.55,10.0,Calm,Calm,-,N/A,,Overcast,0,2013-05-01 14:15:00
7:35 AM,35.6,35.6,100,30.56,10.0,Calm,Calm,-,N/A,,Mostly Cloudy,0,2013-05-01 14:35:00
7:55 AM,39.2,35.6,87,30.56,10.0,Calm,Calm,-,N/A,,Overcast,0,2013-05-01 14:55:00
8:15 AM,41.0,35.6,81,30.56,10.0,Calm,Calm,-,N/A,,Mostly Cloudy,0,2013-05-01 15:15:00
8:35 AM,44.6,33.8,66,30.56,10.0,Calm,Calm,-,N/A,,Mostly Cloudy,0,2013-05-01 15:35:00
8:55 AM,44.6,33.8,66,30.57,10.0,Calm,Calm,-,N/A,,Overcast,0,2013-05-01 15:55:00
9:15 AM,46.4,33.8,62,30.57,10.0,Calm,Calm,-,N/A,,Mostly Cloudy,0,2013-05-01 16:15:00
9:35 AM,46.4,32.0,57,30.56,10.0,Calm,Calm,-,N/A,,Mostly Cloudy,0,2013-05-01 16:35:00
9:55 AM,48.2,32.0,54,30.56,10.0,Calm,Calm,-,N/A,,Overcast,0,2013-05-01 16:55:00
10:15 AM,50.0,32.0,50,30.56,10.0,Calm,Calm,-,N/A,,Mostly Cloudy,0,2013-05-01 17:15:00
10:35 AM,51.8,35.6,54,30.56,10.0,Calm,Calm,-,N/A,,Overcast,0,2013-05-01 17:35:00
10:55 AM,53.6,32.0,44,30.56,10.0,North,3.5,-,N/A,,Overcast,10,2013-05-01 17:55:00
11:15 AM,53.6,32.0,44,30.56,10.0,NNW,5.8,-,N/A,,Overcast,340,2013-05-01 18:15:00
11:35 AM,55.4,33.8,44,30.57,10.0,NNW,5.8,-,N/A,,Overcast,340,2013-05-01 18:35:00
11:55 AM,55.4,33.8,44,30.57,10.0,NNE,4.6,-,N/A,,Overcast,20,2013-05-01 18:55:00
12:15 PM,55.4,33.8,44,30.56,10.0,Calm,Calm,-,N/A,,Mostly Cloudy,0,2013-05-01 19:15:00
12:35 PM,55.4,35.6,47,30.56,10.0,NNW,5.8,-,N/A,,Overcast,340,2013-05-01 19:35:00
12:55 PM,57.2,32.0,38,30.55,10.0,Calm,Calm,-,N/A,,Overcast,0,2013-05-01 19:55:00
1:15 PM,59.0,30.2,34,30.55,10.0,Calm,Calm,-,N/A,,Overcast,0,2013-05-01 20:15:00
1:35 PM,59.0,28.4,31,30.55,10.0,Calm,Calm,-,N/A,,Overcast,0,2013-05-01 20:35:00
1:55 PM,59.0,30.2,34,30.55,10.0,Calm,Calm,-,N/A,,Mostly Cloudy,0,2013-05-01 20:55:00
2:15 PM,60.8,30.2,31,30.55,10.0,Calm,Calm,-,N/A,,Mostly Cloudy,0,2013-05-01 21:15:00
2:35 PM,60.8,32.0,34,30.55,10.0,NW,6.9,-,N/A,,Overcast,320,2013-05-01 21:35:00
2:55 PM,60.8,32.0,34,30.55,10.0,NNW,6.9,-,N/A,,Overcast,330,2013-05-01 21:55:00
3:15 PM,60.8,32.0,34,30.55,10.0,Calm,Calm,-,N/A,,Overcast,0,2013-05-01 22:15:00
3:35 PM,60.8,28.4,29,30.55,10.0,Calm,Calm,-,N/A,,Mostly Cloudy,0,2013-05-01 22:35:00
3:55 PM,62.6,28.4,27,30.55,10.0,Calm,Calm,-,N/A,,Overcast,0,2013-05-01 22:55:00
4:15 PM,62.6,28.4,27,30.54,10.0,Calm,Calm,-,N/A,,Overcast,0,2013-05-01 23:15:00
4:35 PM,62.6,28.4,27,30.54,10.0,NNW,5.8,-,N/A,,Overcast,330,2013-05-01 23:35:00
4:55 PM,62.6,28.4,27,30.54,10.0,North,4.6,-,N/A,,Mostly Cloudy,10,2013-05-01 23:55:00
5:15 PM,62.6,28.4,27,30.53,10.0,NNW,4.6,-,N/A,,Overcast,330,2013-05-02 00:15:00
5:35 PM,62.6,28.4,27,30.53,10.0,Calm,Calm,-,N/A,,Mostly Cloudy,0,2013-05-02 00:35:00
5:55 PM,62.6,28.4,27,30.53,10.0,North,5.8,-,N/A,,Mostly Cloudy,350,2013-05-02 00:55:00
6:15 PM,62.6,26.6,26,30.53,10.0,NW,3.5,-,N/A,,Mostly Cloudy,320,2013-05-02 01:15:00
6:35 PM,60.8,26.6,27,30.53,10.0,NNW,4.6,-,N/A,,Mostly Cloudy,330,2013-05-02 01:35:00
6:55 PM,60.8,28.4,29,30.53,10.0,NNW,3.5,-,N/A,,Mostly Cloudy,340,2013-05-02 01:55:00
7:15 PM,59.0,28.4,31,30.53,10.0,Calm,Calm,-,N/A,,Overcast,0,2013-05-02 02:15:00
7:35 PM,57.2,28.4,33,30.53,10.0,Calm,Calm,-,N/A,,Overcast,0,2013-05-02 02:35:00
8:15 PM,53.6,32.0,44,30.53,10.0,Calm,Calm,-,N/A,,Mostly Cloudy,0,2013-05-02 03:15:00
8:35 PM,50.0,32.0,50,30.53,10.0,Calm,Calm,-,N/A,,Overcast,0,2013-05-02 03:35:00
8:55 PM,48.2,32.0,54,30.53,10.0,Calm,Calm,-,N/A,,Overcast,0,2013-05-02 03:55:00
9:15 PM,48.2,32.0,54,30.54,10.0,Calm,Calm,-,N/A,,Overcast,0,2013-05-02 04:15:00
9:35 PM,48.2,32.0,54,30.54,10.0,Calm,Calm,-,N/A,,Mostly Cloudy,0,2013-05-02 04:35:00
9:55 PM,46.4,32.0,57,30.54,10.0,Calm,Calm,-,N/A,,Mostly Cloudy,0,2013-05-02 04:55:00
10:15 PM,46.4,32.0,57,30.54,10.0,Calm,Calm,-,N/A,,Overcast,0,2013-05-02 05:15:00
10:35 PM,46.4,33.8,62,30.54,10.0,Calm,Calm,-,N/A,,Overcast,0,2013-05-02 05:35:00
10:55 PM,46.4,35.6,66,30.54,10.0,Calm,Calm,-,N/A,,Overcast,0,2013-05-02 05:55:00
11:15 PM,44.6,35.6,71,30.54,10.0,Calm,Calm,-,N/A,,Overcast,0,2013-05-02 06:15:00
11:35 PM,44.6,35.6,71,30.54,10.0,Calm,Calm,-,N/A,,Mostly Cloudy,0,2013-05-02 06:35:00
11:55 PM,42.8,37.4,81,30.54,10.0,Calm,Calm,-,N/A,,Mostly Cloudy,0,2013-05-02 06:55:00